Location: Patterson (historical)
(35.1418°N, 90.5529°W)
Time: 18:31:20
(UTC+00:00)

Cosmos 1953 Rocket - Pass Details

Date: 11 December 2025
Orbit: 598 x 627 km, 82.5° (Epoch: 20 January)

Event Time Altitude Azimuth Distance (km) Brightness Sun altitude
Rises 23:42:03 0° 2° (N) 2,914 6.8 -10.4°
Reaches altitude 10° 23:44:26 10° 11° (N) 2,005 5.9 -10.9°
Maximum altitude 23:48:34 37° 79° (E) 975 4.1 -11.6°
Drops below altitude 10° 23:52:40 10° 147° (SSE) 1,995 6.0 -12.4°
Sets 23:55:01 0° 156° (SSE) 2,896 7.0 -12.9°
